sat.trackr.live / text

‹ back to catalog

STARLINK-37918

NORAD 69831 · 2026-154N

PAYLOAD ACTIVE UNKNOWN

§ Identity

Operator
Country
US
Launch date
2026-07-05
Launch site
AFETR
Launch vehicle
Mass (kg)
RCS (m²)

Purposes: comms

External: N2YO · Heavens-Above · Gunter

§ Orbital elements

Epoch: 2026-09-19T19:42:56.990880Z

Period
93.85 min
Inclination
53.1581°
Eccentricity
0.0000978
Mean motion
15.34394254 rev/d
Perigee alt
462.1 km
Apogee alt
463.4 km
Semi-major
6,840.9 km
B*
-6.8730e-5
RAAN
334.9279°
Arg perigee
111.7733°
Mean anomaly
248.3373°
Rev number
1,313

§ Raw data

STARLINK-379181 69831U 26154N   26262.82149295 -.00002697  00000+0 -68730-4 0  99962 69831  53.1581 334.9279 0000978 111.7733 248.3373 15.34394254 13134

JSON: /api/v1/satellites/69831 · /tle

For live sub-satellite position, see the globe view (requires WebGL).

§ Visibility from observer

Set your observer location to see the next 7 days of passes ≥ 10°. The values pass through the URL so the page stays shareable.

No JS? Fill the form by hand. The geolocation button needs JavaScript.